Station TKPN6 - Turkey Point Hudson River NERRS, NY (NOS 8518962) Image indicating link to RSS feed of recent meteorological observations for station TKPN6


Conditions at TKPN6 as of
(4:30 pm EDT)
2030 GMT on 05/27/2024:
     

Click on the graph icon in the table below to see a time series plot of the last five days of that observation.

5-day plot - Atmospheric Pressure Atmospheric Pressure (PRES):29.71 in
5-day plot - Air Temperature Air Temperature (ATMP): 70.5 °F
5-day plot - Water Temperature Water Temperature (WTMP): 72.0 °F
5-day plot - Dew Point Dew Point (DEWP): 65.5 °F
5-day plot - Wind Speed at 10 Meters Wind Speed at 10 meters (WSPD10M): 13.6 kts
5-day plot - Wind Speed at 20 Meters Wind Speed at 20 meters (WSPD20M): 15.5 kts
Previous observations
TIME
(EDT)
5-day plot - Wind Direction
WDIR
 
5-day plot - Wind Speed
WSPD
kts
5-day plot - Wind Gust
GST
kts
5-day plot - Wave Height
WVHT
ft
5-day plot - Dominant Wave Period
DPD
sec
5-day plot - Average Wave Period
APD
sec
5-day plot - Mean Wave Direction
MWD
 
5-day plot - Atmospheric Pressure
PRES
in
5-day plot - Pressure Tendency
PTDY
in
5-day plot - Air Temperature
ATMP
°F
5-day plot - Water Temperature
WTMP
°F
5-day plot - Dew Point
DEWP
°F
5-day plot - Salinity
SAL
psu
5-day plot - Visibility
VIS
nmi
5-day plot - Tide (above MLLW)
TIDE
ft
2024-05-27 04:24 pm-------29.71- 70.9 72.1 66.0---
2024-05-27 04:18 pm S 14.0 19.0----29.72- 71.2 72.1 65.7---
2024-05-27 04:12 pmSSE 12.0 15.0----29.71- 71.2 72.1 65.8---
2024-05-27 04:06 pmSSE 15.0 21.0----29.72- 71.6 72.1 66.0---
2024-05-27 04:00 pmSSE 13.0 17.1----29.72-0.09 71.8 72.3 66.6---
2024-05-27 03:54 pm S 15.0 19.0----29.72- 72.0 72.1 66.7---
2024-05-27 03:48 pm S 14.0 17.1------ 72.5 72.3 66.6---
2024-05-27 03:42 pm S 14.0 19.0------ 72.9 72.3 66.6---
2024-05-27 03:36 pmSSE 18.1 25.1------ 73.8 72.3 66.2---
2024-05-27 03:30 pm S 17.1 22.0----29.72- 75.0 72.3 65.8---
2024-05-27 03:24 pmSSE 13.0 17.1----29.72- 75.4 72.3 65.7---
2024-05-27 03:18 pmSSE 17.1 22.0----29.71- 75.9 72.3 65.7---
2024-05-27 03:12 pmSSE 13.0 17.1----29.72- 75.7 72.3 66.2---
2024-05-27 03:06 pmSSE 12.0 20.0----29.72- 75.6 72.3 66.6---
2024-05-27 03:00 pmSSE 13.0 22.9----29.72-0.11 75.4 72.3 66.4---
2024-05-27 02:54 pm S 14.0 19.0----29.72- 75.4 72.3 66.4---
2024-05-27 02:48 pmSSE 11.1 15.9----29.72- 75.4 72.3 66.4---
2024-05-27 02:42 pmSSE 13.0 15.0----29.72- 75.6 72.3 66.2---
2024-05-27 02:36 pmSSE 11.1 17.1----29.72- 75.2 72.3 66.0---
2024-05-27 02:30 pmSSE 9.9 15.9----29.73- 74.8 72.3 66.2---
2024-05-27 02:24 pmSSE 11.1 19.0----29.74- 74.7 72.3 66.2---
2024-05-27 02:18 pmSSE 14.0 19.0----29.75- 74.8 72.3 65.8---
2024-05-27 02:12 pmSSE 12.0 15.0----29.75- 75.0 72.3 65.5---
2024-05-27 02:06 pmSSE 12.0 15.0----29.76- 74.8 72.3 65.7---
2024-05-27 02:00 pmSSE 13.0 19.0----29.76-0.09 74.8 72.3 65.3---
2024-05-27 01:54 pm S 12.0 20.0----29.77- 74.7 72.3 65.8---
2024-05-27 01:48 pm S 17.1 22.0----29.77-- 72.3----
2024-05-27 01:42 pmSSE 15.0 20.0----29.78-- 72.3----
2024-05-27 01:36 pm S 15.0 20.0----29.78-- 72.3----
2024-05-27 01:30 pmSSE 12.0 19.0----29.78- 74.1 72.3 66.2---
2024-05-27 01:24 pm SE 12.0 17.1----29.78- 74.3 72.3 65.8---
2024-05-27 01:18 pmSSE 11.1 18.1----29.79- 73.8 72.1 66.6---
2024-05-27 01:12 pm S 11.1 15.0----29.80- 73.2 72.0 66.4---
2024-05-27 01:06 pmSSE 9.9 14.0----29.80- 73.2 72.0 66.4---
2024-05-27 01:00 pm S 13.0 18.1----29.81-0.04 73.2 71.8 66.6---
2024-05-27 12:54 pmSSE 14.0 19.0----29.82- 73.0 71.8 66.6---
2024-05-27 12:48 pmSSE 14.0 19.0----29.83- 72.9 71.8 66.4---
2024-05-27 12:42 pmSSE 12.0 15.9----29.83- 72.9 71.8 66.2---
2024-05-27 12:36 pm S 12.0 15.0----29.83- 72.7 71.6 66.2---
2024-05-27 12:30 pm S 12.0 17.1----29.83- 72.7 71.6 66.9---
2024-05-27 12:24 pmSSE 13.0 15.9----29.83- 72.9 71.6 66.2---
2024-05-27 12:18 pmSSE 9.9 14.0----29.83- 73.0 71.6 66.2---
2024-05-27 12:12 pmSSE 12.0 15.0----29.83- 73.2 71.6 66.0---
2024-05-27 12:06 pmSSE 11.1 19.0----29.83- 73.2 71.6 66.4---
2024-05-27 12:00 pm S 15.0 19.0----29.83-0.05 73.4 71.6 65.8---
2024-05-27 11:54 am S 13.0 15.0----29.83- 73.4 71.6 66.4---
2024-05-27 11:48 amSSE 12.0 17.1----29.84- 73.0 71.6 66.2---
2024-05-27 11:42 am S 11.1 15.9----29.84- 73.0 71.6 66.4---
2024-05-27 11:36 am S 12.0 18.1----29.84- 72.9 71.6 66.4---
2024-05-27 11:30 am S 15.0 18.1----29.85- 72.9 71.4 66.2---
2024-05-27 11:24 am S 11.1 15.9----29.85- 72.7 71.4 66.7---
2024-05-27 11:18 am S 14.0 18.1----29.84- 72.9 71.4 66.6---
2024-05-27 11:12 am S 11.1 14.0----29.85- 72.5 71.4 66.7---
2024-05-27 11:06 am S 11.1 17.1----29.85- 72.3 71.4 66.7---
2024-05-27 11:00 am S 11.1 17.1----29.85-0.04 72.1 71.4 66.0---
2024-05-27 10:54 am S 7.0 12.0----29.85- 72.0 71.2 66.2---
2024-05-27 10:48 am S 7.0 12.0----29.85-- 71.2----
2024-05-27 10:42 am S 6.0 9.9----29.85-- 71.2----
2024-05-27 10:36 am S 6.0 8.9----29.85-- 71.2----
2024-05-27 10:30 am S 2.9 7.0----29.85- 71.6 71.2 66.4---
2024-05-27 10:24 am S 5.1 11.1----29.85- 71.4 71.2 66.0---
2024-05-27 10:18 am S 8.0 12.0----29.85- 71.1 71.2 65.7---
2024-05-27 10:12 am S 8.9 15.0----29.84- 70.9 71.2 65.8---
2024-05-27 10:06 am S 9.9 14.0----29.84- 70.7 71.2 65.8---
2024-05-27 10:00 am S 11.1 13.0----29.85-0.04 70.5 71.2 65.8---
2024-05-27 09:54 am S 11.1 14.0----29.85- 70.5 71.2 66.2---
2024-05-27 09:48 am S 11.1 12.0----29.85- 70.5 71.1 66.6---
2024-05-27 09:42 am S 7.0 9.9----29.86- 70.3 71.1 66.7---
2024-05-27 09:36 amSSE 6.0 8.0----29.86- 70.0 71.1 66.9---
2024-05-27 09:30 amSSE 6.0 9.9----29.87- 69.8 71.1 66.7---
2024-05-27 09:24 amSSE 6.0 8.0----29.87- 69.8 71.1 66.7---
2024-05-27 09:18 amSSE 6.0 7.0----29.87- 69.4 71.1 66.4---
2024-05-27 09:12 amSSE 5.1 6.0----29.88- 69.4 71.1 66.6---
2024-05-27 09:06 amSSE 5.1 6.0----29.88- 69.3 71.1 66.2---
2024-05-27 09:00 amSSE 5.1 8.0----29.88+0.00 69.4 71.1 66.4---
2024-05-27 08:54 am S 6.0 7.0----29.88- 69.3 71.1 66.2---
2024-05-27 08:48 amSSE 5.1 7.0----29.88- 69.3 71.1 66.4---
2024-05-27 08:42 amSSE 5.1 6.0----29.88- 69.1 71.1 66.0---
2024-05-27 08:36 amSSE 5.1 6.0----29.88- 69.1 71.1 66.0---
2024-05-27 08:30 amSSE 5.1 7.0----29.88- 69.1 71.1 65.8---
2024-05-27 08:24 amSSE 5.1 6.0----29.88- 68.9 71.1 65.5---
2024-05-27 08:18 am S 5.1 6.0----29.89- 69.1 71.1 65.7---
2024-05-27 08:12 amSSE 5.1 6.0----29.89- 69.1 71.1 65.7---
2024-05-27 08:06 am SE 5.1 8.0----29.88- 68.9 71.1 65.5---
2024-05-27 08:00 am SE 5.1 8.0----29.88-0.01 69.1 71.1 65.8---
2024-05-27 07:54 amSSE 5.1 8.0----29.89- 69.1 71.1 65.7---
2024-05-27 07:48 am SE 6.0 8.0----29.89- 69.1 71.1 65.5---
2024-05-27 07:42 amSSE 5.1 7.0----29.89- 69.3 71.1 65.8---
2024-05-27 07:36 amSSE 6.0 8.0----29.89- 69.3 71.1 65.8---
2024-05-27 07:30 amSSE 5.1 8.0----29.89- 69.4 71.1 65.8---
2024-05-27 07:24 am SE 4.1 6.0----29.88- 69.8 71.1 66.0---
2024-05-27 07:18 am SE 5.1 6.0----29.88- 69.8 71.1 66.0---
2024-05-27 07:12 am S 5.1 6.0----29.89- 70.0 71.1 66.2---
2024-05-27 07:06 am SE 2.9 5.1----29.88- 70.2 71.1 66.0---
2024-05-27 07:00 am S 4.1 7.0----29.88-0.01 70.2 71.1 65.8---
2024-05-27 06:54 am S 5.1 8.0----29.88- 70.2 71.1 65.8---
2024-05-27 06:48 am S 6.0 6.0----29.88- 70.2 71.1 65.8---
2024-05-27 06:42 amSSE 5.1 6.0----29.88- 70.3 71.1 65.8---
2024-05-27 06:36 am S 7.0 8.0----29.88- 70.2 71.1 65.3---
2024-05-27 06:30 am S 6.0 8.9----29.88- 70.2 71.1 65.7---
2024-05-27 06:24 am S 6.0 8.0----29.88- 70.3 71.2 66.0---
2024-05-27 06:18 amSSE 6.0 7.0----29.88- 70.2 71.2 65.5---
2024-05-27 06:12 amSSE 7.0 8.9----29.88- 70.3 71.2 65.8---
2024-05-27 06:06 amSSE 6.0 8.9----29.88- 70.2 71.2 65.5---
2024-05-27 06:00 amSSE 6.0 8.0----29.88+0.01 70.3 71.2 65.7---
2024-05-27 05:54 amSSE 5.1 8.0----29.88- 70.2 71.2 65.5---
2024-05-27 05:48 amSSE 6.0 8.9----29.88- 70.2 71.2 65.5---
2024-05-27 05:42 am S 6.0 8.0----29.88- 70.2 71.2 65.7---
2024-05-27 05:36 am S 6.0 8.9----29.88- 70.2 71.2 65.5---
2024-05-27 05:30 am S 7.0 8.0----29.88- 70.2 71.2 65.5---
2024-05-27 05:24 amSSE 5.1 6.0----29.88- 70.2 71.2 65.3---
2024-05-27 05:18 amSSE 5.1 8.0----29.89- 70.2 71.1 65.3---
2024-05-27 05:12 amSSE 7.0 8.9----29.89- 70.5 71.1 65.8---
2024-05-27 05:06 am S 8.0 8.9----29.89- 70.5 71.1 66.0---
2024-05-27 05:00 am S 8.0 8.0----29.90+0.00 70.5 71.1 66.0---
2024-05-27 04:54 amSSE 7.0 8.9----29.89- 70.5 71.1 65.5---
2024-05-27 04:48 amSSE 7.0 8.0----29.89- 70.5 71.1 65.5---
2024-05-27 04:42 amSSE 5.1 7.0----29.88- 70.2 71.1 66.0---
2024-05-27 04:36 am S 2.9 4.1----29.89- 69.8 71.1 65.3---
2024-05-27 04:30 am S 2.9 5.1----29.89- 69.8 71.1 65.1---
2024-05-27 04:24 am S 2.9 4.1----29.89- 70.0 71.1 65.1---
2024-05-27 04:18 am S 2.9 4.1----29.89- 70.0 71.1 65.1---
2024-05-27 04:12 am S 4.1 5.1----29.89- 70.2 71.1 65.3---
2024-05-27 04:06 am S 4.1 5.1----29.89- 70.3 71.1 65.7---
2024-05-27 04:00 am S 4.1 6.0----29.90-0.02 70.3 71.1----
2024-05-27 03:54 am S 5.1 7.0----29.89- 70.3 71.1----
2024-05-27 03:48 am S 5.1 7.0----29.89- 70.2 71.1 65.1---
2024-05-27 03:42 amSSW 2.9 5.1----29.89- 69.8 71.2 64.9---
2024-05-27 03:36 amSSW 2.9 7.0----29.89- 69.8 71.1 64.9---
2024-05-27 03:30 amSSW 2.9 4.1----29.88- 70.0 71.1 65.1---
2024-05-27 03:24 am SW 1.9 5.1----29.88- 69.6 71.1 64.9---
2024-05-27 03:18 am SW 1.9 4.1----29.88- 69.4 71.1 64.9---
2024-05-27 03:12 amSSW 1.9 2.9----29.88- 69.4 71.1 65.1---
2024-05-27 03:06 am- 0.0 2.9----29.87- 69.3 71.1 64.9---
2024-05-27 03:00 am SW 1.9 5.1----29.87-0.04 69.4 71.1 65.1---
2024-05-27 02:54 am SW 1.0 2.9----29.87- 69.4 71.1 64.9---
2024-05-27 02:48 am- 0.0 1.9----29.87- 69.6 71.1 65.1---
2024-05-27 02:42 am- 0.0 1.9----29.87- 69.6 71.1 64.9---
2024-05-27 02:36 am- 0.0 1.0----29.88- 69.8 71.1 65.1---
2024-05-27 02:30 amSSW 1.0 2.9----29.88- 70.0 71.1 65.5---
2024-05-27 02:24 am S 2.9 4.1----29.88- 70.2 71.1 66.0---
2024-05-27 02:18 am S 4.1 4.1----29.88- 70.3 71.1 66.0---
2024-05-27 02:12 amSSE 2.9 4.1----29.89- 70.3 71.1 65.7---
2024-05-27 02:06 amSSE 5.1 5.1----29.89- 70.3 71.1 65.5---
2024-05-27 02:00 amSSE 5.1 6.0----29.90-0.01 70.5 71.1 66.2---
2024-05-27 01:54 amSSE 6.0 6.0----29.90- 70.5 71.1 65.8---
2024-05-27 01:48 amSSE 6.0 8.0----29.90- 70.7 71.1 66.6---
2024-05-27 01:42 amSSE 6.0 7.0----29.91- 70.7 71.1 66.4---
2024-05-27 01:36 amSSE 6.0 7.0----29.91- 70.5 71.1 66.2---
2024-05-27 01:30 am S 4.1 5.1----29.91- 70.5 71.1 66.0---
2024-05-27 01:24 am S 2.9 5.1----29.91- 70.3 71.1 65.5---
2024-05-27 01:18 am S 2.9 4.1----29.92- 70.5 71.1 65.5---
2024-05-27 01:12 am S 1.9 5.1----29.92- 70.5 71.1 65.5---
2024-05-27 01:06 amSSW 1.9 5.1----29.92- 70.5 71.1 65.3---
2024-05-27 01:00 am S 2.9 2.9----29.92+0.00 70.5 71.1 65.5---
2024-05-27 12:54 am S 2.9 5.1----29.91- 70.5 71.1 64.9---
2024-05-27 12:48 am S 4.1 6.0----29.92- 70.5 70.9 65.1---
2024-05-27 12:42 am S 5.1 6.0----29.91- 70.5 70.9 65.5---
2024-05-27 12:36 amSSE 4.1 5.1----29.91- 70.5 70.9 65.5---
2024-05-27 12:30 amSSE 4.1 5.1----29.91- 70.7 70.9 65.5---
2024-05-27 12:24 amSSE 4.1 5.1----29.91- 70.7 71.1 65.1---
2024-05-27 12:18 amSSE 4.1 5.1----29.91- 70.9 71.1 65.5---
2024-05-27 12:12 amSSE 4.1 6.0----29.91- 70.9 71.2 65.5---
2024-05-27 12:06 amSSE 4.1 5.1----29.91- 70.7 71.2 65.5---
2024-05-27 12:00 am S 4.1 5.1----29.91+0.01 70.7 71.4 64.8---
2024-05-26 11:54 pm S 2.9 4.1----29.91- 70.7 71.4 64.4---
2024-05-26 11:48 pm-------29.91-- 71.6----
2024-05-26 11:42 pm-------29.91-- 71.6----
2024-05-26 11:36 pm-------29.91-- 71.6----
2024-05-26 11:30 pm S 1.9 2.9----29.91- 70.7 71.6 63.0---
2024-05-26 11:24 pm S 2.9 4.1----29.91- 70.9 71.8 63.0---
2024-05-26 11:18 pm- 0.0 1.9----29.91- 71.1 71.8 63.0---
2024-05-26 11:12 pm S 1.9 2.9----29.91- 71.2 71.6 63.0---
2024-05-26 11:06 pmSSW 1.0 1.9----29.91- 71.2 71.8 62.6---
2024-05-26 11:00 pm- 0.0 1.0----29.91+0.02 71.6 71.6 62.8---
2024-05-26 10:54 pm- 0.0 1.9----29.91- 72.0 71.6 62.6---
2024-05-26 10:48 pm SW 1.0 1.9----29.91- 72.0 71.6 62.6---
2024-05-26 10:42 pm- 0.0 1.0----29.91- 72.1 71.6 62.4---
2024-05-26 10:36 pm- 0.0 1.0----29.90- 72.3 71.4 62.4---
2024-05-26 10:30 pm---------- 71.6----
2024-05-26 10:24 pm---------- 71.4----
2024-05-26 10:18 pmSSW 1.9 2.9----29.91-------
2024-05-26 10:12 pm SW 1.9 2.9----29.91-------
2024-05-26 10:06 pmSSW 1.9 2.9----29.91-------
2024-05-26 10:00 pmSSW 1.0 2.9----29.91+0.05- 71.4----
2024-05-26 09:54 pm SW 1.9 2.9----29.91-- 71.4----
2024-05-26 09:48 pmSSW 1.0 4.1----29.91- 74.1 71.2 62.4---
2024-05-26 09:42 pmSSW 1.9 4.1----29.91- 73.8 71.2 62.4---
2024-05-26 09:36 pm S 2.9 5.1----29.91- 74.5 71.2 64.8---
2024-05-26 09:30 pm S 4.1 8.0----29.91- 75.4 71.2 62.2---
2024-05-26 09:24 pm S 5.1 7.0----29.91- 75.6 71.2 62.2---
2024-05-26 09:18 pm S 6.0 8.0----29.90-- 71.2----
2024-05-26 09:12 pm S 6.0 8.0----29.90-- 71.1----
2024-05-26 09:06 pm S 6.0 8.0----29.90-- 71.2----
2024-05-26 09:00 pm S 6.0 8.9----29.90+0.04- 71.1----
2024-05-26 08:54 pm S 6.0 8.0----29.89-- 71.1----
2024-05-26 08:48 pm S 5.1 7.0----29.89-- 71.2----
2024-05-26 08:42 pm S 5.1 7.0----29.89-- 71.4----
2024-05-26 08:36 pm S 6.0 7.0----29.89-- 71.4----
2024-05-26 08:30 pm S 6.0 8.0----29.89- 75.9 71.2 64.9---
2024-05-26 08:24 pm S 5.1 8.0----29.88- 76.1 71.2 65.3---
2024-05-26 08:18 pm S 6.0 8.0----29.88-- 71.2----
2024-05-26 08:12 pm S 7.0 8.9----29.89-- 71.2----
2024-05-26 08:06 pm S 7.0 9.9----29.89-- 71.1----
2024-05-26 08:00 pm S 7.0 8.9----29.88+0.02- 71.1----
2024-05-26 07:54 pm S 5.1 7.0----29.88-- 71.2----
2024-05-26 07:48 pm-------29.88-- 71.2----
2024-05-26 07:42 pm-------29.88-- 71.2----
2024-05-26 07:36 pm-------29.88-- 71.2----
2024-05-26 07:30 pm S 6.0 8.0----29.88-- 71.4----
2024-05-26 07:24 pm S 5.1 8.0----29.87-- 71.4----
2024-05-26 07:00 pm S 6.0 8.9----29.86-0.01 79.5 71.4 63.5---
2024-05-26 06:54 pm S 6.0 8.9----29.86- 79.7 71.4 63.5---
2024-05-26 06:48 pm S 8.0 9.9----29.86- 79.7 71.4 63.3---
2024-05-26 06:42 pm S 7.0 8.9----29.86- 79.7 71.4 63.3---
2024-05-26 06:36 pm S 7.0 8.0----29.86- 79.9 71.6 63.1---
2024-05-26 06:30 pm S 6.0 8.9----29.86-- 71.4----
2024-05-26 06:24 pm S 5.1 8.9----29.86-- 71.2----
2024-05-26 06:18 pm S 6.0 8.9----29.86- 79.9 71.6 62.6---
2024-05-26 06:12 pm S 2.9 5.1----29.86- 79.2 71.4 63.0---
2024-05-26 06:06 pm S 2.9 4.1----29.86- 79.9 71.2 60.6---
2024-05-26 06:00 pm- 0.0 1.9----29.86-0.02 80.2 71.2 60.3---
2024-05-26 05:54 pm- 0.0 0.0----29.86- 80.6 71.2 59.7---
2024-05-26 05:48 pm- 0.0 1.0----29.86-- 71.2----
2024-05-26 05:42 pm- 0.0 0.0----29.86-- 71.2----
2024-05-26 05:36 pm- 0.0 0.0----29.86-- 71.2----
2024-05-26 05:30 pm- 0.0 0.0----29.86- 82.4 71.4 63.3---
2024-05-26 05:24 pm- 0.0 0.0----29.86- 81.9 71.4 62.8---
2024-05-26 05:18 pm- 0.0 0.0----29.86- 81.1 71.6 61.0---
2024-05-26 05:12 pm- 0.0 0.0----29.86- 80.6 72.0 64.0---
2024-05-26 05:06 pm- 0.0 1.9----29.86- 80.1 72.1 64.6---
2024-05-26 05:00 pm-------29.87- 82.0 72.1 61.2---
2024-05-26 04:54 pm-------29.87- 81.9 72.1 59.5---